Regional Weather Roundup
Issued by NWS

Home | Current Version | Previous Version | Graphics & Text | Print | Product List | Glossary On
Versions: 1 2 3 4 5 6 7 8 9 10 11 12 13 14 15 16 17 18 19 20 21 22 23 24 25 26 27 28 29 30 31 32 33 34 35 36 37 38 39 40 41 42 43 44 45 46 47 48 49 50
000
ASUS44 KMEG 270100
RWRTN
TENNESSEE HOURLY STATE WEATHER ROUNDUP
NATIONAL WEATHER SERVICE MEMPHIS TN
800 PM CDT WED JUL 26 2017

TNZ002-004-019-021-049-052-054-088>092-270200-
WEST TENNESSEE

CITY           SKY/WX    TMP DP  RH WIND       PRES   REMARKS
MEMPHIS INTL   MOCLDY    88  73  61 W6        30.02S HX  95
JACKSON        PTCLDY    84  81  90 CALM      30.02R HX  99
$$

TNZ008-025-027-028-033-062-065-066-270200-
NORTH MIDDLE TENNESSEE

CITY           SKY/WX    TMP DP  RH WIND       PRES   REMARKS
NASHVILLE      MOCLDY    85  71  63 E9        30.04R HX  90
CLARKSVILLE    CLOUDY    84  75  74 CALM      30.02R HX  92
CROSSVILLE     PTCLDY    80  72  76 CALM      30.13R
$$

TNZ061-075-076-078-094-096-097-270200-
SOUTH MIDDLE TENNESSEE

CITY           SKY/WX    TMP DP  RH WIND       PRES   REMARKS
MCMINNVILLE    CLEAR     82  79  89 CALM      30.07S HX  93
$$

TNZ017-018-042-046-047-270200-
NORTHEAST TENNESSEE

CITY           SKY/WX    TMP DP  RH WIND       PRES   REMARKS
TRI CITIES     PTCLDY    80  66  62 NW5       30.09R
$$

TNZ012-013-036-069-073-074-270200-
CENTRAL EAST TENNESSEE

CITY           SKY/WX    TMP DP  RH WIND       PRES   REMARKS
KNOXVILLE      CLOUDY    87  69  54 W6        30.05R HX  91
GATLINBURG     CLEAR     84  66  54 CALM      30.05S
$$

TNZ083-085-099-270200-
SOUTHEAST TENNESSEE

CITY           SKY/WX    TMP DP  RH WIND       PRES   REMARKS
CHATTANOOGA    PTCLDY    90  70  51 CALM      30.05R HX  95
$$

SKY/WX REPORTED AS FAIR MEANS FEW OR NO CLOUDS BELOW
12 THOUSAND FEET.





USA.gov is the U.S. government's official web portal to all federal, state and local government web resources and services.